Location: Sternwarte_Laufen
(47.9344°N, 12.9346°E)
Time: 18:07:39
(UTC+02:00)

OTV 5 (USA 277) - Visible Passes

Search period start: 25 April 2018 00:00
Search period end: 05 May 2018 00:00
Orbit: 308 x 325 km, 54.5° (Epoch: 23 April)

Date Brightness Start Highest point End Pass type
(mag) Time Alt. Az. Time Alt. Az. Time Alt. Az.
25 Apr ? 21:51:29 10° NW 21:53:35 19° N 21:55:41 10° NE visible
25 Apr ? 23:25:53 10° NW 23:26:41 16° NW 23:26:41 16° NW visible
26 Apr ? 22:06:06 10° NW 22:08:19 21° N 22:09:40 15° NE visible
26 Apr ? 23:40:18 10° NW 23:40:32 12° NW 23:40:32 12° NW visible
27 Apr ? 20:45:59 10° NW 20:48:06 20° N 20:50:14 10° NE visible
27 Apr ? 22:20:35 10° NW 22:23:00 28° NNE 22:23:30 26° NE visible
28 Apr ? 21:00:42 10° NW 21:02:51 20° N 21:04:59 10° ENE visible
28 Apr ? 22:34:58 10° NW 22:37:20 44° N 22:37:20 44° N visible
29 Apr ? 21:15:15 10° NW 21:17:34 24° NNE 21:19:52 10° ENE visible
29 Apr ? 22:49:25 10° WNW 22:51:10 35° WNW 22:51:10 35° WNW visible
30 Apr ? 21:29:40 10° NW 21:32:13 35° NNE 21:34:09 15° E visible
30 Apr ? 23:04:02 10° WNW 23:05:01 18° W 23:05:01 18° W visible
01 May ? 21:44:05 10° NW 21:46:47 66° NNE 21:48:02 28° ESE visible
02 May ? 21:58:35 10° WNW 22:01:15 53° SW 22:01:56 39° SSE visible
03 May ? 22:13:22 10° W 22:15:35 22° SW 22:15:52 22° SSW visible
